Powrót do katalogu

COSMOS 2143 DEB

AktywnyPO
NORAD 57722·DEBRIS·🇷🇺 Russia

Wystrzelony May 16, 1991 z Plesetsk Cosmodrome

Loading…

Następne Przeloty (najbliższe 24 godziny)

TLE

ŚwieżeSource: Space-Track

Epoka: Sep 14, 2026, 10:08 UTC

1 57722U 91033K   26257.42282618  .00000085  00000-0  39438-3 0  9997
2 57722  82.5812 243.0722 0002559 138.9929 221.1357 12.66642435146127

Śledź COSMOS 2143 DEB w czasie rzeczywistym z AllMySat

Download on the App Store